Beverly, MA

8:52 PM EDT on July 20, 2017 (GMT -0400)
Beverly Municipal

Weather History for KBVY - May, 2014

Change the Weather History Date:

Monday, May 5, 2014

  Actual Average Record
Temperature  
Mean Temperature 56 °F -  
Max Temperature 64 °F 61 °F 82 °F (2000)
Min Temperature 48 °F 41 °F 32 °F (2005)
Degree Days  
Heating Degree Days 9    
Growing Degree Days 6 (Base 50)    
Moisture  
Dew Point 39 °F    
Average Humidity 55    
Maximum Humidity 74    
Minimum Humidity 39    
Precipitation  
Precipitation 0.00 in - - ()
Sea Level Pressure  
Sea Level Pressure 29.72 in    
Wind  
Wind Speed 12 mph (NW)    
Max Wind Speed 18 mph    
Max Gust Speed 26 mph    
Visibility 10 miles    
Events      
Averages and records for this station are not official NWS values.
T = Trace of Precipitation, MM = Missing Value Source: NWS Daily Summary

Daily Weather History Graph

Daily Weather History Graph

Search for Another Location

Airport or City:

Trip Planner

Search our weather history database for the weather conditions in past years. The results will help you decide how hot, cold, wet, or windy it might be!

Date:

Astronomy

May. 05, 2014 Rise Set
Actual Time 5:33 AM EDT 7:48 PM EDT
Civil Twilight 5:02 AM EDT 8:19 PM EDT
Nautical Twilight 4:23 AM EDT 8:58 PM EDT
Astronomical Twilight 3:41 AM EDT 9:41 PM EDT
Moon 10:50 AM EDT (5/5) 12:30 AM EDT (5/5)
Length of Visible Light 15h 17m
Length of Day
14h 15m
Waxing Crescent, 36% of the Moon is Illuminated
May 5
Waxing Crescent
May 6
First Quarter
May 14
Full
May 21
Last Quarter
May 28
New

Hourly Weather History & Observations

Time (EDT) Temp. Dew Point Humidity Pressure Visibility Wind Dir Wind Speed Gust Speed Precip Events Conditions
12:53 AM 48.9 °F 37.9 °F 66% 29.58 in 10.0 mi WNW 8.1 mph - N/A   Overcast
1:53 AM 50.0 °F 39.0 °F 66% 29.59 in 10.0 mi NW 12.7 mph 21.9 mph N/A   Overcast
2:53 AM 50.0 °F 39.9 °F 68% 29.60 in 10.0 mi NW 11.5 mph - N/A   Overcast
3:53 AM 50.0 °F 39.9 °F 68% 29.62 in 10.0 mi NW 11.5 mph - N/A   Overcast
4:53 AM 50.0 °F 41.0 °F 71% 29.65 in 10.0 mi NW 11.5 mph - N/A   Mostly Cloudy
5:53 AM 48.9 °F 41.0 °F 74% 29.68 in 10.0 mi WNW 9.2 mph - N/A   Partly Cloudy
6:53 AM 51.1 °F 41.0 °F 68% 29.70 in 10.0 mi NW 8.1 mph - N/A   Partly Cloudy
7:53 AM 54.0 °F 42.1 °F 64% 29.71 in 10.0 mi NW 12.7 mph - N/A   Clear
8:53 AM 55.9 °F 42.1 °F 60% 29.72 in 10.0 mi NW 13.8 mph 26.5 mph N/A   Mostly Cloudy
9:53 AM 61.0 °F 43.0 °F 52% 29.73 in 10.0 mi NW 18.4 mph 25.3 mph N/A   Mostly Cloudy
10:53 AM 57.0 °F 39.9 °F 53% 29.74 in 10.0 mi NW 15.0 mph - N/A   Overcast
11:53 AM 61.0 °F 41.0 °F 48% 29.74 in 10.0 mi WNW 17.3 mph 25.3 mph N/A   Overcast
12:53 PM 62.1 °F 39.0 °F 43% 29.73 in 10.0 mi WNW 15.0 mph 23.0 mph N/A   Scattered Clouds
1:53 PM 62.6 °F 39.2 °F 42% 29.74 in 10.0 mi NW 16.1 mph 23.0 mph N/A   Overcast
2:53 PM 64.0 °F 39.9 °F 41% 29.72 in 10.0 mi NNW 16.1 mph 24.2 mph N/A   Scattered Clouds
3:53 PM 63.0 °F 37.9 °F 40% 29.73 in 10.0 mi WNW 18.4 mph 25.3 mph N/A   Partly Cloudy
4:53 PM 63.0 °F 37.9 °F 40% 29.73 in 10.0 mi NNW 10.4 mph 24.2 mph N/A   Scattered Clouds
5:53 PM 62.6 °F 37.4 °F 39% 29.76 in 10.0 mi NW 16.1 mph 23.0 mph N/A   Mostly Cloudy
6:53 PM 59.0 °F 36.0 °F 42% 29.77 in 10.0 mi NW 11.5 mph - N/A   Clear
7:53 PM 55.9 °F 36.0 °F 47% 29.80 in 10.0 mi NW 12.7 mph - N/A   Clear
8:53 PM 52.0 °F 36.0 °F 54% 29.81 in 10.0 mi NNW 6.9 mph - N/A   Clear
9:53 PM 52.0 °F 37.0 °F 57% 29.82 in 10.0 mi NNW 11.5 mph - N/A   Clear
10:53 PM 50.0 °F 36.0 °F 59% 29.83 in 10.0 mi NW 8.1 mph - N/A   Clear
11:53 PM 48.2 °F 35.6 °F 62% 29.85 in 10.0 mi NW 9.2 mph - N/A   Clear